GFSFLT1_850_spd_021.txt.gz
Wind_Speed
42 39 51 52 55 57 57 54 50 48 49 45 41 37 32 30 37 30 29 23 23 24 23 20 18 17 19 15 16 17 15 13 12
38 38 37 51 55 56 58 56 53 50 49 47 42 38 33 32 37 38 32 33 25 26 25 21 16 17 16 15 16 19 17 14 14
32 33 45 49 54 56 57 58 55 51 49 48 45 40 36 32 37 40 37 35 35 30 26 24 22 24 22 21 19 20 20 18 17
37 51 46 48 55 57 57 56 55 54 51 48 47 43 39 36 35 40 38 39 39 39 30 28 30 26 27 26 25 23 23 21 20
37 26 51 49 54 53 55 54 55 57 54 51 47 44 41 38 37 38 40 42 42 41 39 34 32 33 31 29 28 25 25 23 24
29 26 33 47 50 51 56 54 54 56 56 52 49 45 43 41 39 39 42 42 44 44 42 40 38 37 38 36 32 30 28 25 25
18 32 23 46 48 55 56 56 53 54 56 53 49 47 45 44 44 42 42 43 44 46 45 41 42 42 40 39 37 35 31 27 27
28 12 16 37 47 53 53 54 54 53 53 53 48 46 46 46 45 44 42 44 45 45 48 47 43 42 42 42 39 38 35 35 32
29 18 24 34 41 50 53 53 54 55 54 54 50 46 46 45 45 45 45 45 46 45 43 44 45 44 43 42 42 40 36 37 34
11 18 21 31 35 40 48 51 50 55 55 55 52 48 46 45 45 44 44 45 45 44 42 40 40 40 40 41 39 37 36 37 35
7 16 22 34 33 29 32 46 51 49 55 57 55 51 49 46 45 44 42 42 43 42 40 38 38 37 38 37 36 32 32 33 34
26 25 32 18 26 30 30 34 38 51 54 58 57 55 52 51 47 44 46 45 42 40 38 37 37 36 37 35 33 32 29 30 31
6 14 32 30 25 28 38 35 38 40 49 56 60 58 56 54 50 47 48 47 43 40 38 36 35 35 34 30 27 27 27 22 26
18 15 18 33 46 36 26 27 38 42 45 52 56 59 54 52 48 47 47 44 40 41 36 34 33 30 29 26 24 22 23 23 20
22 18 10 21 33 41 38 31 36 46 46 46 49 49 43 46 40 41 40 38 38 33 31 31 28 25 22 22 18 17 18 17 14
6 2 3 12 21 30 32 35 38 42 41 40 36 39 39 33 34 34 34 34 29 30 28 27 23 22 20 17 15 16 16 14 15
15 11 13 16 22 24 21 31 35 35 36 36 32 35 36 35 37 33 29 28 28 26 25 21 21 20 18 16 16 16 15 13 14
15 15 16 20 23 25 24 19 22 28 32 35 35 37 35 32 32 32 31 27 24 22 20 16 17 16 14 16 19 16 11 11 11
14 9 7 12 25 28 28 27 29 31 33 33 35 33 26 28 29 29 27 25 22 19 15 15 14 14 16 14 12 10 9 10 8
16 12 9 2 5 21 25 28 27 25 24 24 21 23 26 28 27 25 22 18 17 18 19 17 18 16 16 12 11 9 12 11 9

GFSFLT1_850_spd_024.txt.gz
Wind_Speed
41 44 50 55 59 62 62 61 60 59 56 52 50 46 41 35 31 31 32 28 30 28 25 24 22 20 18 18 16 16 16 14 13
39 47 50 57 58 62 64 62 62 60 58 54 51 48 42 38 34 32 35 29 29 30 26 24 22 19 18 19 18 17 17 16 14
43 51 57 56 56 63 61 63 63 61 58 56 52 49 44 40 34 33 35 32 35 31 27 25 24 21 21 18 19 17 16 18 16
47 51 56 50 56 59 63 61 61 61 60 57 54 51 46 42 37 35 35 36 38 38 31 29 29 27 26 23 22 20 19 19 21
45 51 47 54 53 53 54 57 58 60 60 59 56 51 47 44 39 35 36 38 40 41 39 35 34 31 29 26 26 25 23 22 23
14 28 34 45 46 47 56 57 59 59 60 60 56 53 48 45 43 40 37 38 41 43 43 43 40 35 34 34 30 28 27 26 25
35 35 32 34 44 52 57 59 60 59 60 59 57 54 50 47 45 42 39 38 42 43 45 44 45 44 41 36 33 33 32 30 29
30 27 21 26 35 42 55 57 57 59 59 59 58 57 52 50 46 42 41 40 42 44 45 47 45 43 43 40 38 37 36 34 32
22 35 32 26 45 50 60 60 60 59 59 57 58 58 55 49 47 47 46 44 43 43 45 45 46 48 45 44 41 38 38 35 36
27 30 38 40 49 52 56 64 60 59 59 58 58 57 56 52 49 48 48 46 45 45 44 44 44 46 45 43 41 39 37 35 36
20 15 7 19 39 50 56 59 58 56 57 58 58 56 56 53 51 49 47 47 46 45 43 42 41 39 39 40 40 36 32 34 35
16 20 25 12 21 39 46 54 57 56 55 56 56 56 55 55 52 49 49 47 46 43 40 39 38 34 33 33 31 27 25 27 31
8 19 23 21 19 27 44 46 52 56 56 56 56 56 55 55 56 52 47 46 44 40 36 34 33 31 30 29 26 22 24 26 29
3 6 12 17 25 30 28 30 44 47 50 55 50 50 55 58 58 55 48 44 42 40 37 36 32 30 30 27 25 24 24 25 26
5 6 8 12 17 27 38 35 36 39 52 47 49 54 53 54 57 57 50 47 44 42 40 36 35 30 24 26 26 23 21 19 18
10 7 10 14 18 21 35 40 42 42 44 45 49 53 50 52 48 50 50 48 48 44 40 39 35 29 26 28 26 20 19 18 16
5 3 3 13 20 25 31 37 45 47 45 45 52 50 47 48 47 46 47 47 46 43 42 38 31 26 36 28 24 21 19 19 19
10 2 1 4 13 19 20 28 45 47 48 50 52 47 44 43 44 44 45 44 42 42 38 31 31 28 23 21 20 18 14 18 17
11 6 2 3 5 11 10 8 7 40 39 41 43 45 47 45 43 41 42 42 36 30 18 15 15 15 17 16 13 16 14 14 14
11 8 6 5 10 10 15 30 22 32 44 41 40 42 42 41 40 32 24 17 23 12 22 18 17 20 21 16 16 14 16 15 14

GFSFLT1_850_spd_030.txt.gz
Wind_Speed
43 40 46 48 55 54 54 53 55 55 51 50 49 48 47 45 44 43 38 33 30 28 28 28 28 25 24 22 19 16 15 16 14
29 38 43 49 53 57 59 57 56 58 55 52 51 50 48 48 45 44 42 37 31 29 29 27 28 25 24 21 19 18 18 17 15
34 38 44 49 49 52 56 60 59 58 59 54 52 49 51 50 47 43 41 39 34 29 30 28 31 29 27 24 22 21 21 19 16
38 40 45 48 51 55 56 55 58 58 58 58 56 56 54 53 51 47 44 42 37 33 29 31 31 33 29 26 25 24 24 22 19
37 36 38 41 46 50 50 53 54 57 57 56 56 55 54 55 53 50 48 45 39 36 33 32 31 34 33 30 28 25 25 23 22
20 26 32 36 36 39 46 50 52 54 55 56 55 54 54 54 55 53 50 47 43 39 36 34 36 35 37 34 32 28 25 24 23
26 22 19 24 34 40 45 49 51 52 52 52 53 53 53 54 54 53 51 47 44 42 39 37 38 40 40 37 35 31 28 28 27
22 20 21 17 21 33 43 47 49 51 49 49 50 50 52 54 54 50 48 49 45 41 41 41 39 42 42 42 38 36 34 31 29
28 29 28 26 22 30 39 45 47 50 48 48 47 46 49 51 53 50 48 50 49 44 43 45 43 43 46 45 43 40 37 33 31
36 38 39 38 30 28 34 44 45 47 48 49 46 47 46 48 51 50 48 47 50 49 46 46 48 45 45 49 46 43 40 36 34
42 40 40 37 29 32 34 40 46 46 46 48 49 49 49 48 48 47 47 48 50 51 49 48 48 49 47 47 48 46 43 37 36
38 32 31 19 22 23 27 34 40 44 46 46 46 48 50 48 46 46 47 48 50 53 53 51 50 50 49 48 45 44 41 39 41
32 31 29 23 23 21 29 33 37 40 41 42 48 47 46 46 46 47 47 46 49 51 53 53 52 51 51 49 46 43 37 40 42
23 21 19 20 14 10 21 29 33 36 39 43 41 43 43 45 45 46 44 47 47 48 52 52 52 51 52 49 45 42 37 37 38
15 17 14 11 11 11 12 16 19 22 28 29 34 36 37 42 43 45 48 46 45 45 44 46 47 44 46 48 44 40 38 38 38
13 13 12 10 8 8 8 3 8 14 19 23 24 28 32 35 39 43 44 45 46 41 39 41 46 47 45 43 41 39 37 34 33
21 21 21 18 16 16 16 12 9 6 6 15 20 24 25 28 34 37 38 40 42 44 47 50 52 52 51 44 42 41 40 39 38
23 24 22 19 18 17 16 14 12 9 8 9 9 9 17 20 23 31 34 36 40 44 44 41 37 35 34 38 41 38 36 38 36
21 19 16 15 16 14 15 13 13 14 14 15 14 15 16 15 17 23 30 34 38 39 38 36 34 35 39 36 22 19 12 8 8
24 22 19 17 15 13 12 11 10 11 14 16 17 18 19 16 16 20 24 33 35 29 28 36 38 34 29 26 9 6 18 32 16

GFSFLT1_850_spd_033.txt.gz
Wind_Speed
27 31 36 39 43 46 49 49 47 48 49 46 45 44 45 45 44 42 39 36 33 28 27 24 24 25 22 21 19 18 16 15 15
24 30 34 39 42 46 51 51 50 49 48 47 48 45 43 45 46 45 43 39 34 32 30 27 26 26 27 24 22 21 18 16 15
26 28 29 33 37 43 50 51 52 52 50 47 46 47 45 44 44 44 44 41 37 33 32 29 29 28 27 26 24 22 21 19 17
28 28 30 32 36 41 45 44 47 53 54 53 51 47 47 45 47 47 46 45 40 35 33 31 31 31 29 29 27 26 24 22 20
21 24 30 30 31 31 32 42 45 49 51 53 54 52 50 48 46 47 47 46 42 38 35 33 31 32 33 33 31 30 27 26 25
21 21 25 27 23 28 35 41 45 47 47 49 49 53 55 54 53 51 50 47 45 41 38 36 35 33 36 35 36 34 31 29 27
16 17 21 18 21 26 30 36 41 44 46 46 46 47 50 53 54 54 52 49 46 44 41 39 37 37 35 36 38 38 35 33 31
19 21 23 21 19 19 23 30 37 41 44 45 45 46 47 47 48 50 50 49 46 44 44 42 40 40 38 38 39 41 40 38 36
29 24 26 24 23 21 20 22 28 37 41 45 46 48 46 45 45 47 48 47 46 44 45 44 44 44 42 41 43 44 43 41 41
30 30 26 28 29 29 28 27 29 32 36 43 46 47 46 46 45 46 44 45 44 45 45 45 47 46 46 46 45 47 46 45 43
37 39 39 40 38 38 37 36 33 35 38 40 42 45 45 45 46 46 45 44 44 46 46 47 49 49 48 48 47 48 48 46 44
41 45 47 46 38 34 22 25 29 34 37 42 42 42 44 45 45 46 47 46 45 47 47 48 50 50 49 49 49 49 47 45 46
34 37 35 34 29 27 27 25 24 28 33 37 39 39 41 42 44 45 46 45 47 46 47 47 48 50 51 51 49 49 48 44 43
25 26 26 24 24 24 23 22 21 24 27 31 31 30 32 36 39 39 40 41 42 41 42 41 48 51 51 51 51 50 49 47 45
24 20 17 18 20 20 18 14 17 21 24 24 25 25 27 29 31 33 33 36 37 36 37 40 45 46 49 48 53 50 49 48 44
13 13 13 13 15 16 12 10 12 16 17 17 15 14 17 21 23 25 28 30 32 35 40 44 44 40 45 46 48 45 47 50 46
14 18 21 20 21 22 19 14 12 10 9 9 10 11 12 14 17 21 25 26 27 26 27 45 46 40 42 44 43 43 47 36 31
18 21 26 25 23 23 22 18 15 13 10 8 6 4 4 8 13 17 22 26 28 35 44 50 45 45 43 43 42 43 35 30 30
23 22 23 24 20 19 17 14 10 7 6 4 2 3 5 7 9 13 18 25 28 33 37 40 41 38 39 45 45 45 34 29 34
23 19 20 20 18 16 13 11 9 7 5 3 1 2 4 7 9 15 20 24 28 33 36 39 37 36 39 41 41 39 34 32 34

GFSFLT1_850_spd_036.txt.gz
Wind_Speed
23 27 32 34 38 39 38 40 44 42 41 44 43 43 42 41 39 36 32 30 24 20 20 19 18 20 22 22 20 18 17 14 13
24 27 31 35 38 40 39 39 43 46 48 47 46 45 45 44 43 42 34 34 32 28 23 20 20 20 21 21 21 21 19 15 16
23 28 30 31 33 37 40 40 42 44 46 45 46 47 47 46 46 44 43 42 39 34 29 28 23 23 23 23 23 24 23 19 20
26 26 28 30 31 32 35 36 37 40 42 47 47 47 48 48 46 45 44 45 44 42 37 35 31 30 25 25 25 26 27 24 21
25 24 23 23 25 26 29 34 36 39 41 41 44 47 45 46 47 46 44 45 43 42 40 38 35 33 31 30 28 27 30 29 25
10 15 13 18 19 24 27 30 34 36 38 41 40 43 46 46 46 47 49 47 46 44 41 40 38 36 36 34 33 33 33 33 32
5 10 12 14 17 23 25 27 31 38 36 36 37 38 40 47 52 51 48 47 47 46 45 43 41 41 39 37 35 36 37 37 36
12 7 5 8 14 17 19 22 27 32 33 35 36 41 39 45 48 52 53 53 52 49 47 45 44 43 42 40 38 37 42 43 41
19 21 22 18 15 16 16 19 22 26 30 34 37 41 46 44 44 44 48 52 54 52 50 47 46 47 47 45 43 40 42 44 46
18 18 21 19 15 17 16 17 21 22 25 25 35 41 44 45 45 44 44 46 48 49 51 48 48 49 50 50 48 47 44 45 47
26 28 28 21 20 20 17 18 20 23 22 27 32 36 41 41 45 45 42 42 43 44 47 49 49 49 52 51 51 50 48 44 44
27 27 28 28 26 24 24 24 24 22 25 27 30 36 39 41 41 38 35 42 44 38 35 39 43 40 47 53 53 51 49 47 46
23 23 22 24 26 25 25 27 21 18 22 26 33 34 35 35 37 37 39 39 37 35 32 34 33 37 44 51 54 53 51 49 49
24 21 21 22 23 24 25 23 23 23 22 28 28 24 26 30 32 34 35 35 36 35 36 33 36 37 38 45 53 56 56 53 53
28 30 27 24 21 20 21 23 23 22 25 22 23 22 23 27 28 26 25 32 33 34 33 35 40 40 42 47 52 56 59 58 58
27 23 21 18 16 16 19 20 21 20 20 21 21 21 22 23 23 23 25 27 27 28 31 32 34 37 35 39 37 47 55 58 59
20 16 15 12 11 13 13 15 15 16 17 19 19 19 20 21 21 21 21 22 24 26 29 31 33 34 35 26 40 45 40 47 52
16 13 11 10 10 9 9 11 11 12 15 16 15 15 15 16 16 20 20 23 24 27 30 31 32 35 37 35 39 41 39 47 49
13 13 11 10 10 9 10 13 14 15 17 12 10 9 9 10 11 13 15 17 21 30 30 30 37 37 35 30 34 34 36 39 39
13 14 12 10 11 9 7 8 11 11 12 12 12 9 9 6 10 9 12 14 18 20 21 31 37 36 38 40 39 36 36 37 37